• In Belarus
  • List of Countries
  • For 7 days
  • Water Temperature
  • Satellite Maps
  • Weather Map
  • Weather Widgets
  • user-avatar
    Login

    Hourly Weather La Condamine

    Today, 23 March, Saturday

    Time Temperature Precipitation Wind Pressure Humidity
    00:00 +14°C° 0 mm 3 mps 753 mmHg 16%
    01:00 +15°C° 0 mm 2 mps 752 mmHg 16%
    02:00 +14°C° 0 mm 2 mps 752 mmHg 15%
    03:00 +14°C° 0 mm 2 mps 752 mmHg 15%
    04:00 +14°C° 0 mm 2 mps 752 mmHg 15%
    05:00 +14°C° 0 mm 2 mps 752 mmHg 16%
    06:00 +14°C° 0 mm 2 mps 752 mmHg 16%
    07:00 +16°C° 0 mm 2 mps 752 mmHg 15%
    08:00 +19°C° 0 mm 2 mps 752 mmHg 15%
    09:00 +21°C° 0 mm 2 mps 752 mmHg 14%
    10:00 +23°C° 0 mm 2 mps 752 mmHg 16%
    11:00 +22°C° 0 mm 3 mps 752 mmHg 17%
    12:00 +24°C° 0 mm 3 mps 751 mmHg 18%
    13:00 +24°C° 0 mm 3 mps 751 mmHg 19%
    14:00 +24°C° 0 mm 2 mps 751 mmHg 20%
    15:00 +23°C° 0 mm 2 mps 751 mmHg 22%
    16:00 +21°C° 0 mm 2 mps 750 mmHg 25%
    17:00 +20°C° 0 mm 1 mps 750 mmHg 27%
    18:00 +18°C° 0 mm 1 mps 750 mmHg 30%
    19:00 +18°C° 0 mm 1 mps 751 mmHg 30%
    20:00 +17°C° 0 mm 2 mps 751 mmHg 29%
    21:00 +16°C° 0 mm 2 mps 751 mmHg 28%
    22:00 +16°C° 0 mm 2 mps 751 mmHg 27%
    23:00 +16°C° 0 mm 2 mps 752 mmHg 25%

    Tomorrow, 24 March, Sunday

    Time Temperature Precipitation Wind Pressure Humidity
    00:00 +15°C° 0 mm 2 mps 752 mmHg 24%
    01:00 +15°C° 0 mm 2 mps 751 mmHg 24%
    02:00 +15°C° 0 mm 2 mps 751 mmHg 23%
    03:00 +15°C° 0 mm 2 mps 751 mmHg 22%
    04:00 +15°C° 0 mm 2 mps 751 mmHg 22%
    05:00 +14°C° 0 mm 2 mps 751 mmHg 22%
    06:00 +14°C° 0 mm 2 mps 751 mmHg 22%
    07:00 +16°C° 0 mm 2 mps 751 mmHg 21%
    08:00 +18°C° 0 mm 2 mps 751 mmHg 20%
    09:00 +21°C° 0 mm 2 mps 751 mmHg 19%
    10:00 +21°C° 0 mm 2 mps 751 mmHg 20%
    11:00 +22°C° 0 mm 3 mps 751 mmHg 22%
    12:00 +22°C° 0 mm 3 mps 751 mmHg 23%
    13:00 +22°C° 0 mm 3 mps 750 mmHg 25%
    14:00 +22°C° 0 mm 3 mps 750 mmHg 27%
    15:00 +21°C° 0 mm 3 mps 749 mmHg 29%
    16:00 +20°C° 0 mm 3 mps 749 mmHg 34%
    17:00 +18°C° 0 mm 2 mps 749 mmHg 40%
    18:00 +16°C° 0 mm 2 mps 749 mmHg 46%
    19:00 +16°C° 0 mm 2 mps 749 mmHg 46%
    20:00 +16°C° 0 mm 2 mps 749 mmHg 46%
    21:00 +15°C° 0 mm 1 mps 749 mmHg 46%
    22:00 +15°C° 0 mm 2 mps 749 mmHg 45%
    23:00 +15°C° 0 mm 2 mps 749 mmHg 44%

    Day after tomorrow, 25 March, Monday

    Time Temperature Precipitation Wind Pressure Humidity
    00:00 +15°C° 0 mm 2 mps 748 mmHg 43%
    01:00 +15°C° 0 mm 2 mps 748 mmHg 42%
    02:00 +14°C° 0 mm 1 mps 748 mmHg 42%
    03:00 +14°C° 0 mm 1 mps 747 mmHg 41%
    04:00 +14°C° 0 mm 1 mps 747 mmHg 42%
    05:00 +14°C° 0 mm 1 mps 747 mmHg 43%
    06:00 +14°C° 0 mm 1 mps 747 mmHg 44%
    07:00 +16°C° 0 mm 2 mps 746 mmHg 43%
    08:00 +17°C° 0 mm 2 mps 746 mmHg 42%
    09:00 +19°C° 0 mm 2 mps 746 mmHg 41%
    10:00 +20°C° 0 mm 2 mps 746 mmHg 41%
    11:00 +20°C° 0 mm 2 mps 745 mmHg 42%
    12:00 +21°C° 0 mm 3 mps 745 mmHg 43%
    13:00 +20°C° 0 mm 3 mps 744 mmHg 46%
    14:00 +20°C° 0 mm 2 mps 744 mmHg 49%
    15:00 +20°C° 0 mm 2 mps 743 mmHg 52%
    16:00 +18°C° 0 mm 2 mps 743 mmHg 60%
    17:00 +17°C° 0 mm 2 mps 742 mmHg 68%
    18:00 +15°C° 0 mm 2 mps 742 mmHg 77%
    19:00 +15°C° 0 mm 2 mps 742 mmHg 76%
    20:00 +15°C° 0 mm 2 mps 742 mmHg 76%
    21:00 +14°C° 0 mm 3 mps 742 mmHg 75%
    22:00 +14°C° 0 mm 3 mps 743 mmHg 73%
    23:00 +13°C° 0 mm 4 mps 743 mmHg 72%

    26 March, Tuesday

    Time Temperature Precipitation Wind Pressure Humidity
    00:00 +13°C° 0 mm 5 mps 743 mmHg 70%
    01:00 +13°C° 0 mm 6 mps 744 mmHg 60%
    02:00 +11°C° 0 mm 7 mps 744 mmHg 50%
    03:00 +11°C° 0 mm 8 mps 745 mmHg 41%
    04:00 +10°C° 0 mm 8 mps 746 mmHg 38%
    05:00 +10°C° 0 mm 8 mps 747 mmHg 35%
    06:00 +9°C° 0 mm 8 mps 749 mmHg 32%
    07:00 +10°C° 0 mm 8 mps 750 mmHg 32%
    08:00 +11°C° 0 mm 8 mps 751 mmHg 32%
    09:00 +12°C° 0 mm 8 mps 752 mmHg 32%
    10:00 +14°C° 0 mm 7 mps 752 mmHg 27%
    11:00 +15°C° 0 mm 7 mps 752 mmHg 22%
    12:00 +16°C° 0 mm 6 mps 752 mmHg 17%
    13:00 +16°C° 0 mm 6 mps 751 mmHg 18%
    14:00 +16°C° 0 mm 6 mps 751 mmHg 19%
    15:00 +16°C° 0 mm 6 mps 751 mmHg 20%
    16:00 +15°C° 0 mm 5 mps 751 mmHg 27%
    17:00 +13°C° 0 mm 4 mps 751 mmHg 34%
    18:00 +11°C° 0 mm 3 mps 752 mmHg 40%
    19:00 +12°C° 0 mm 2 mps 752 mmHg 42%
    20:00 +10°C° 0 mm 2 mps 753 mmHg 44%
    21:00 +11°C° 0 mm 1 mps 753 mmHg 46%
    22:00 +11°C° 0 mm 1 mps 753 mmHg 45%
    23:00 +10°C° 0 mm 1 mps 754 mmHg 44%

    27 March, Wednesday

    Time Temperature Precipitation Wind Pressure Humidity
    00:00 +10°C° 0 mm 1 mps 754 mmHg 43%
    01:00 +10°C° 0 mm 1 mps 754 mmHg 41%
    02:00 +10°C° 0 mm 1 mps 754 mmHg 39%
    03:00 +9°C° 0 mm 1 mps 753 mmHg 37%
    04:00 +9°C° 0 mm 1 mps 753 mmHg 34%
    05:00 +9°C° 0 mm 1 mps 753 mmHg 32%
    06:00 +9°C° 0 mm 1 mps 753 mmHg 30%
    07:00 +11°C° 0 mm 1 mps 754 mmHg 30%
    08:00 +13°C° 0 mm 2 mps 754 mmHg 31%
    09:00 +15°C° 0 mm 2 mps 754 mmHg 32%
    10:00 +16°C° 0 mm 2 mps 754 mmHg 32%
    11:00 +16°C° 0 mm 3 mps 753 mmHg 32%
    12:00 +17°C° 0 mm 3 mps 753 mmHg 33%
    13:00 +17°C° 0 mm 3 mps 753 mmHg 35%
    14:00 +16°C° 0 mm 3 mps 752 mmHg 38%
    15:00 +16°C° 0 mm 3 mps 752 mmHg 40%
    16:00 +14°C° 0 mm 3 mps 752 mmHg 47%
    17:00 +13°C° 0 mm 2 mps 752 mmHg 54%
    18:00 +12°C° 0 mm 2 mps 752 mmHg 61%
    19:00 +12°C° 0 mm 1 mps 752 mmHg 61%
    20:00 +11°C° 0 mm 1 mps 753 mmHg 60%
    21:00 +11°C° 0 mm 1 mps 753 mmHg 60%
    22:00 +11°C° 0 mm 1 mps 753 mmHg 59%
    23:00 +11°C° 0 mm 1 mps 753 mmHg 57%

    28 March, Thursday

    Time Temperature Precipitation Wind Pressure Humidity
    00:00 +10°C° 0 mm 2 mps 754 mmHg 56%
    01:00 +9°C° 0 mm 2 mps 753 mmHg 54%
    02:00 +9°C° 0 mm 2 mps 753 mmHg 53%
    03:00 +9°C° 0 mm 2 mps 753 mmHg 51%
    04:00 +9°C° 0 mm 3 mps 754 mmHg 51%
    05:00 +9°C° 0 mm 3 mps 754 mmHg 50%
    06:00 +9°C° 0 mm 3 mps 754 mmHg 50%
    07:00 +11°C° 0 mm 3 mps 754 mmHg 47%
    08:00 +12°C° 0 mm 3 mps 754 mmHg 44%
    09:00 +14°C° 0 mm 4 mps 754 mmHg 41%
    10:00 +15°C° 0 mm 4 mps 754 mmHg 41%
    11:00 +15°C° 0 mm 4 mps 754 mmHg 42%
    12:00 +17°C° 0 mm 4 mps 754 mmHg 42%
    13:00 +15°C° 0 mm 4 mps 754 mmHg 44%
    14:00 +15°C° 0 mm 4 mps 754 mmHg 45%
    15:00 +15°C° 0 mm 4 mps 754 mmHg 46%
    16:00 +14°C° 0 mm 3 mps 754 mmHg 51%
    17:00 +13°C° 0 mm 2 mps 754 mmHg 56%
    18:00 +12°C° 0 mm 1 mps 754 mmHg 60%
    19:00 +12°C° 0 mm 1 mps 755 mmHg 58%
    20:00 +12°C° 0 mm 2 mps 755 mmHg 57%
    21:00 +10°C° 0 mm 2 mps 756 mmHg 55%
    22:00 +10°C° 0 mm 2 mps 756 mmHg 51%
    23:00 +10°C° 0 mm 2 mps 756 mmHg 48%
    Show more